Flag for U.S.A. Weather past 2 weeks in St. Paul, Minnesota, U.S.A.

Now
71 °F

Passing clouds.


Feels Like: 77 °F
Forecast: 53 / 75 °F
Wind: 12 mph from South

Location: St. Paul Downtown Holman Field

Current Time: Jun 2, 2015 at 12:35:49 PM

Latest Report: Jun 2, 2015 at 11:53 AM


Visibility: 10 mi

Pressure: 30.03 "Hg

Humidity: 55%

Dew point: 54 °F

Location of St. PaulLocation

Historic Weather in St. Paul — Graph

°F

St. Paul temperature yesterday

Maximum temperature yesterday: 69 °F (at 5:53 PM)
Minimum temperature yesterday: 51 °F (at 4:53 AM)
Average temperature yesterday: 59 °F

Past Weeks' High & Low Weather Summary

 TemperatureHumidityPressure
High84 °F (May 28, 2:53 PM)100% (May 25, 5:53 AM)30.43 "Hg (May 25, 5:53 AM)
Low35 °F (May 19, 5:53 AM)25% (May 21, 6:53 PM)29.66 "Hg (May 25, 7:53 AM)
Average59 °F67%30.07 "Hg
* Reported May 18 10:53 AM — Jun 2 10:53 AM, St. Paul, Weather by CustomWeather, © 2015

Note: Actual official high and low records may vary slightly from our data, if they occured in-between our weather recording intervals... More about our weather records

Advertising

St. Paul weather history for previous 24 hours

 ConditionsComfort  
Time TempWeatherWind HumidityBarometerVisibility
10:53 AM
Tue, Jun 2
69 °FSunny.15 mph61%30.03 "Hg10 mi
9:53 AM67 °FSunny.12 mph63%30.05 "Hg10 mi
8:53 AM62 °FSunny.13 mph65%30.07 "Hg10 mi
7:53 AM58 °FSunny.12 mph65%30.08 "Hg10 mi
6:53 AM56 °FSunny.12 mph67%30.09 "Hg10 mi
5:53 AM54 °FClear.8 mph69%30.08 "Hg10 mi
4:53 AM54 °FClear.9 mph67%30.09 "Hg10 mi
3:53 AM55 °FClear.8 mph64%30.10 "Hg10 mi
2:53 AM55 °FClear.10 mph64%30.09 "Hg10 mi
1:53 AM56 °FClear.9 mph65%30.10 "Hg10 mi
12:53 AM56 °FClear.8 mph70%30.11 "Hg10 mi
11:53 PM
Mon, Jun 1
57 °FClear.7 mph67%30.12 "Hg10 mi
9:53 PM62 °FClear.8 mph54%30.12 "Hg10 mi
8:53 PM64 °FSunny.9 mph47%30.11 "Hg10 mi
7:53 PM66 °FSunny.10 mph40%30.13 "Hg10 mi
6:53 PM67 °FSunny.12 mph39%30.14 "Hg10 mi
5:53 PM69 °FSunny.15 mph36%30.14 "Hg10 mi
4:53 PM67 °FSunny.13 mph41%30.16 "Hg10 mi
3:53 PM68 °FSunny.10 mph39%30.17 "Hg10 mi
2:53 PM67 °FSunny.12 mph35%30.19 "Hg10 mi
1:53 PM66 °FSunny.8 mph32%30.21 "Hg10 mi
12:53 PM64 °FSunny.10 mph35%30.23 "Hg10 mi
Weather by CustomWeather, © 2015

See weather overviewHow to use our weather pages